Location: Newark
(7.0858°N, 171.3717°E)
Time: 06:31:39
(UTC+00:00)

Courier 1B - Pass Details

Date: 02 December 2020
Orbit: 962 x 1209 km, 28.3° (Epoch: 19 January)

Event Time Altitude Azimuth Distance (km) Brightness Sun altitude
Rises 18:43:02 0° 268° (W) 4,067 10.2 1.7°
Reaches altitude 10° 18:46:50 10° 251° (WSW) 3,126 9.7 2.5°
Maximum altitude 18:52:03 19° 209° (SSW) 2,519 9.7 3.7°
Drops below altitude 10° 18:57:17 10° 167° (SSE) 3,135 10.8 4.9°
Sets 19:01:08 0° 149° (SSE) 4,083 11.7 5.8°
